Mojave, CA

4:34 AM PDT on March 29, 2017 (GMT -0700)
Mojave

Weather History for KMHV - August, 2013

Change the Weather History Date:

Monday, August 19, 2013

  Actual Average Record
Temperature  
Mean Temperature 83 °F -  
Max Temperature 95 °F 93 °F 104 °F (1992)
Min Temperature 71 °F 64 °F 53 °F (1976)
Cooling Degree Days 18    
Growing Degree Days 33 (Base 50)    
Moisture  
Dew Point 54 °F    
Average Humidity 40    
Maximum Humidity 61    
Minimum Humidity 25    
Precipitation  
Precipitation 0.00 in - - ()
Sea Level Pressure  
Sea Level Pressure 30.01 in    
Wind  
Wind Speed 10 mph (NNE)    
Max Wind Speed 20 mph    
Max Gust Speed 28 mph    
Visibility 10 miles    
Events      
Averages and records for this station are not official NWS values.
T = Trace of Precipitation, MM = Missing Value Source: NWS Daily Summary

Daily Weather History Graph

Daily Weather History Graph

Search for Another Location

Airport or City:

Trip Planner

Search our weather history database for the weather conditions in past years. The results will help you decide how hot, cold, wet, or windy it might be!

Date:

Astronomy

Aug. 19, 2013 Rise Set
Actual Time 6:15 AM PDT 7:35 PM PDT
Civil Twilight 5:49 AM PDT 8:02 PM PDT
Nautical Twilight 5:17 AM PDT 8:33 PM PDT
Astronomical Twilight 4:44 AM PDT 9:06 PM PDT
Moon 6:30 PM PDT (8/19) 4:41 AM PDT (8/19)
Length of Visible Light 14h 13m
Length of Day
13h 20m
Waxing Gibbous, 98% of the Moon is Illuminated
Aug 19
Waxing Gibbous
Aug 20
Full
Aug 28
Last Quarter
Sep 5
New
Sep 12
First Quarter

Hourly Weather History & Observations

Time (PDT) Temp. Heat Index Dew Point Humidity Pressure Visibility Wind Dir Wind Speed Gust Speed Precip Events Conditions
12:15 AM 80.6 °F - 50.0 °F 34% 30.04 in 10.0 mi ENE 10.4 mph - N/A   Clear
12:35 AM 78.8 °F - 48.2 °F 34% 30.04 in 10.0 mi NE 10.4 mph - N/A   Partly Cloudy
12:55 AM 78.8 °F - 50.0 °F 36% 30.04 in 10.0 mi NE 11.5 mph - N/A   Scattered Clouds
1:15 AM 78.8 °F - 50.0 °F 36% 30.04 in 10.0 mi NNE 12.7 mph - N/A   Partly Cloudy
1:35 AM 77.0 °F - 50.0 °F 39% 30.04 in 10.0 mi NNE 10.4 mph - N/A   Clear
1:55 AM 77.0 °F - 50.0 °F 39% 30.04 in 10.0 mi NNE 6.9 mph - N/A   Partly Cloudy
2:15 AM 77.0 °F - 50.0 °F 39% 30.03 in 10.0 mi NE 8.1 mph - N/A   Mostly Cloudy
2:35 AM 75.2 °F - 53.6 °F 47% 30.05 in 10.0 mi East 11.5 mph - N/A   Mostly Cloudy
2:55 AM 75.2 °F - 55.4 °F 50% 30.04 in 10.0 mi ENE 11.5 mph - N/A   Scattered Clouds
3:15 AM 73.4 °F - 57.2 °F 57% 30.04 in 10.0 mi NNE 10.4 mph - N/A   Mostly Cloudy
3:35 AM 73.4 °F - 57.2 °F 57% 30.04 in 10.0 mi NNE 15.0 mph - N/A   Mostly Cloudy
3:55 AM 73.4 °F - 57.2 °F 57% 30.03 in 10.0 mi NNE 16.1 mph - N/A   Mostly Cloudy
4:15 AM 71.6 °F - 57.2 °F 60% 30.03 in 10.0 mi NE 17.3 mph - N/A   Partly Cloudy
4:35 AM 71.6 °F - 57.2 °F 60% 30.03 in 10.0 mi NNE 16.1 mph - N/A   Scattered Clouds
4:55 AM 71.6 °F - 55.4 °F 57% 30.02 in 10.0 mi NNE 16.1 mph - N/A   Scattered Clouds
5:15 AM 75.2 °F - 55.4 °F 50% 30.03 in 10.0 mi NNE 11.5 mph - N/A   Mostly Cloudy
5:35 AM 73.4 °F - 59.0 °F 61% 30.05 in 10.0 mi NE 13.8 mph - N/A   Mostly Cloudy
5:55 AM 73.4 °F - 57.2 °F 57% 30.04 in 10.0 mi NNE 18.4 mph - N/A   Mostly Cloudy
6:15 AM 73.4 °F - 57.2 °F 57% 30.05 in 10.0 mi NNE 16.1 mph - N/A   Scattered Clouds
6:35 AM 73.4 °F - 55.4 °F 53% 30.05 in 10.0 mi NNE 13.8 mph - N/A   Scattered Clouds
6:55 AM 73.4 °F - 55.4 °F 53% 30.06 in 10.0 mi NNE 11.5 mph - N/A   Clear
7:15 AM 75.2 °F - 55.4 °F 50% 30.06 in 10.0 mi NE 11.5 mph - N/A   Clear
7:35 AM 75.2 °F - 57.2 °F 53% 30.06 in 10.0 mi NNE 10.4 mph - N/A   Clear
7:55 AM 77.0 °F - 55.4 °F 47% 30.06 in 10.0 mi NNE 8.1 mph - N/A   Clear
8:15 AM 82.4 °F 81.4 °F 53.6 °F 37% 30.06 in 10.0 mi North 9.2 mph - N/A   Clear
8:35 AM 84.2 °F 82.8 °F 53.6 °F 35% 30.05 in 10.0 mi NNE 8.1 mph - N/A   Clear
8:55 AM 84.2 °F - 51.8 °F 33% 30.05 in 10.0 mi ENE 6.9 mph - N/A   Clear
9:15 AM 84.2 °F 82.8 °F 53.6 °F 35% 30.05 in 10.0 mi NE 8.1 mph - N/A   Clear
9:35 AM 84.2 °F 82.8 °F 53.6 °F 35% 30.05 in 10.0 mi NE 9.2 mph - N/A   Clear
9:55 AM 84.2 °F 82.8 °F 53.6 °F 35% 30.05 in 10.0 mi NE 9.2 mph - N/A   Partly Cloudy
10:15 AM 84.2 °F 82.8 °F 53.6 °F 35% 30.05 in 10.0 mi NE 10.4 mph - N/A   Partly Cloudy
10:35 AM 84.2 °F - 51.8 °F 33% 30.05 in 10.0 mi ENE 6.9 mph - N/A   Scattered Clouds
10:55 AM 86.0 °F 84.2 °F 53.6 °F 33% 30.05 in 10.0 mi NE 10.4 mph - N/A   Partly Cloudy
11:15 AM 86.0 °F 84.2 °F 53.6 °F 33% 30.05 in 10.0 mi NNE 9.2 mph - N/A   Partly Cloudy
11:35 AM 86.0 °F 84.2 °F 53.6 °F 33% 30.04 in 10.0 mi ENE 9.2 mph - N/A   Clear
11:55 AM 86.0 °F 84.5 °F 55.4 °F 35% 30.04 in 10.0 mi ENE 9.2 mph - N/A   Clear
12:15 PM 87.8 °F 86.1 °F 55.4 °F 33% 30.03 in 10.0 mi ENE 11.5 mph - N/A   Clear
12:35 PM 89.6 °F 87.7 °F 55.4 °F 31% 30.03 in 10.0 mi NE 4.6 mph - N/A   Clear
12:55 PM 89.6 °F 87.7 °F 55.4 °F 31% 30.02 in 10.0 mi ENE 8.1 mph - N/A   Clear
1:15 PM 89.6 °F 87.7 °F 55.4 °F 31% 30.01 in 10.0 mi NE 11.5 mph - N/A   Clear
1:35 PM 91.4 °F 89.4 °F 55.4 °F 29% 30.01 in 10.0 mi ENE 11.5 mph - N/A   Clear
1:55 PM 91.4 °F 89.4 °F 55.4 °F 29% 30.00 in 10.0 mi SE 6.9 mph - N/A   Clear
2:15 PM 91.4 °F 89.4 °F 55.4 °F 29% 29.99 in 10.0 mi East 9.2 mph - N/A   Clear
2:35 PM 93.2 °F 91.3 °F 55.4 °F 28% 29.98 in 10.0 mi NE 8.1 mph - N/A   Clear
2:55 PM 93.2 °F 91.3 °F 55.4 °F 28% 29.97 in 10.0 mi ENE 11.5 mph - N/A   Clear
3:15 PM 93.2 °F 91.3 °F 55.4 °F 28% 29.95 in 10.0 mi NE 9.2 mph - N/A   Clear
3:35 PM 93.2 °F 90.8 °F 53.6 °F 26% 29.95 in 10.0 mi Calm Calm - N/A   Clear
3:55 PM 95.0 °F 92.7 °F 53.6 °F 25% 29.95 in 10.0 mi East 15.0 mph 18.4 mph N/A   Clear
4:15 PM 93.2 °F 91.3 °F 55.4 °F 28% 29.94 in 10.0 mi East 11.5 mph 18.4 mph N/A   Clear
4:35 PM 93.2 °F 90.8 °F 53.6 °F 26% 29.93 in 10.0 mi ESE 19.6 mph 27.6 mph N/A   Clear
4:55 PM 89.6 °F 87.7 °F 55.4 °F 31% 29.96 in 4.0 mi ESE 18.4 mph - N/A   Clear
5:15 PM 89.6 °F 88.9 °F 59.0 °F 36% 29.97 in 7.0 mi SSW 15.0 mph - N/A   Clear
5:35 PM 80.6 °F 81.5 °F 60.8 °F 51% 29.94 in 10.0 mi WNW 11.5 mph - N/A   Partly Cloudy
5:55 PM 82.4 °F 82.9 °F 60.8 °F 48% 29.94 in 10.0 mi West 5.8 mph - N/A   Partly Cloudy
6:15 PM 84.2 °F 83.8 °F 59.0 °F 42% 29.93 in 10.0 mi West 8.1 mph - N/A   Clear
6:35 PM 86.0 °F 84.9 °F 57.2 °F 37% 29.93 in 10.0 mi West 6.9 mph - N/A   Clear
6:55 PM 87.8 °F 86.1 °F 55.4 °F 33% 29.94 in 10.0 mi WSW 5.8 mph - N/A   Clear
7:15 PM 87.8 °F 86.1 °F 55.4 °F 33% 29.95 in 10.0 mi West 6.9 mph - N/A   Clear
7:35 PM 86.0 °F 84.5 °F 55.4 °F 35% 29.95 in 10.0 mi West 6.9 mph - N/A   Clear
7:55 PM 84.2 °F 83.0 °F 55.4 °F 37% 29.95 in 10.0 mi West 8.1 mph - N/A   Clear
8:15 PM 84.2 °F - 51.8 °F 33% 29.95 in 10.0 mi West 6.9 mph - N/A   Clear
8:35 PM 82.4 °F - 51.8 °F 35% 29.96 in 10.0 mi SW 4.6 mph - N/A   Clear
8:55 PM 80.6 °F 80.3 °F 53.6 °F 39% 29.96 in 10.0 mi WSW 5.8 mph - N/A   Clear
9:15 PM 80.6 °F 80.5 °F 55.4 °F 42% 29.97 in 10.0 mi WSW 4.6 mph - N/A   Clear
9:35 PM 78.8 °F - 53.6 °F 42% 29.97 in 10.0 mi West 3.5 mph - N/A   Clear
9:55 PM 78.8 °F - 55.4 °F 44% 29.97 in 10.0 mi SW 4.6 mph - N/A   Clear
10:15 PM 77.0 °F - 55.4 °F 47% 29.97 in 10.0 mi NNW 4.6 mph - N/A   Clear
10:35 PM 77.0 °F - 50.0 °F 39% 29.97 in 10.0 mi Calm Calm - N/A   Clear
10:55 PM 77.0 °F - 50.0 °F 39% 29.97 in 10.0 mi WNW 4.6 mph - N/A   Clear
11:15 PM 77.0 °F - 50.0 °F 39% 29.97 in 10.0 mi NW 4.6 mph - N/A   Clear
11:35 PM 77.0 °F - 50.0 °F 39% 29.97 in 10.0 mi NW 5.8 mph - N/A   Clear
11:55 PM 77.0 °F - 50.0 °F 39% 29.97 in 10.0 mi NW 5.8 mph - N/A   Clear